Location: Maiden
(35.5760°N, 81.2120°W)
Time: 02:42:47
(UTC-04:00)

A-11 Canister half - Pass Details

Date: 08 August 2020
Orbit: 1527 x 1682 km, 47.3° (Epoch: 25 September)

Event Time Altitude Azimuth Distance (km) Brightness Sun altitude
Rises 17:35:16 0° 294° (WNW) 4,935 12.5 32.4°
Reaches altitude 10° 17:38:41 10° 301° (WNW) 3,940 12.1 31.7°
Maximum altitude 17:48:20 47° 13° (NNE) 2,106 10.0 29.7°
Drops below altitude 10° 17:57:44 10° 85° (E) 3,847 10.6 27.8°
Sets 18:01:01 0° 91° (E) 4,810 11.0 27.1°
